Regional Weather Roundup
Issued by NWS Spokane, WA

Home | Current Version | Previous Version | Text Only | Print | Product List | Glossary On
Versions: 1 2 3 4 5 6 7 8 9 10 11 12 13 14 15 16 17 18 19 20 21 22 23 24 25 26 27 28 29 30 31 32 33 34 35 36 37 38 39 40 41 42 43 44 45 46 47 48 49 50
000
NZUS01 KOTX 232110
RWROTX
EASTERN WASHINGTON/NORTHERN IDAHO ROUNDUP
NATIONAL WEATHER SERVICE, SPOKANE WA
200 PM PDT TUE SEP 23 2014

Note: "fair" indicated few or no clouds below 12,000 feet with no
significant weather and/or obstructions to visibility.

...NORTHEAST WASHINGTON AND NORTHERN IDAHO PANHANDLE...

CITY           SKY/WX    TMP DP  RH WIND       PRES   REMARKS
SPOKANE INTL   CLOUDY    74  56  53 NE10      29.89F
SPOKANE DOWNTO CLOUDY    77  56  48 VRB5      29.88F
COEUR D ALENE  CLOUDY    73  55  53 N9        29.90F
DEER PARK      CLOUDY    74  54  49 N7        29.90F
SANDPOINT      CLOUDY    68  55  64 CALM      29.92F

...SOUTHEAST WASHINGTON AND SOUTHERN IDAHO PANHANDLE...

CITY           SKY/WX    TMP DP  RH WIND       PRES   REMARKS
WALLA WALLA    CLOUDY    81  57  43 W12       29.85F
PULLMAN/MOSCOW CLOUDY    79  53  40 SW10      29.93F
LEWISTON       CLOUDY    80  58  46 CALM      29.87F
LOWELL           N/A     77  54  44 CALM      29.91F

...COLUMBIA BASIN...

CITY           SKY/WX    TMP DP  RH WIND       PRES   REMARKS
EPHRATA        CLOUDY    75  54  47 N8        29.85S
MOSES LAKE     CLOUDY    76  54  46 NW7       29.86R
TRI CITIES     CLOUDY    78  57  48 CALM      29.83S
HERMISTON      CLOUDY    78  53  41 CALM      29.82F
PENDLETON      CLOUDY    77  54  44 NW10      29.85S

...EAST SLOPES CASCADES...

CITY           SKY/WX    TMP DP  RH WIND       PRES   REMARKS
THE DALLES     CLOUDY    71  52  50 NW5       29.82F
YAKIMA         CLOUDY    73  51  46 W7        29.85R
ELLENSBURG     CLOUDY    69  53  56 CALM      29.86F
WENATCHEE      CLOUDY    67  51  56 NW5       29.88S
OMAK           LGT RAIN  71  55  56 SE9       29.88F

...SOUTHERN BRITISH COLUMBIA...

CITY           SKY/WX    TMP DP  RH WIND       PRES   REMARKS
PENTICTON      CLOUDY    66  57  72 N5        29.85F

...WESTERN MONTANA...

CITY           SKY/WX    TMP DP  RH WIND       PRES   REMARKS
MISSOULA       CLOUDY    78  47  33 SE12      29.97F

...NEIGHBORING CITIES...

CITY           SKY/WX    TMP DP  RH WIND       PRES   REMARKS
SEATTLE        CLOUDY    65  60  84 W5        29.83F
CALGARY        MOSUNNY   64  50  59 S5        29.93F



USA.gov is the U.S. government's official web portal to all federal, state and local government web resources and services.